#timestamp,LO_Frequency,Hit 
1505966415.5,286047000.2,N
1505966435.3,286047001.1,N
1505966455.2,286046999.6,N
1505966475.9,286046998.9,N
1505966495.7,286046997.4,N
1505966515.6,286046997.1,N
1505966535.4,286047001.1,N
1505966555.2,286047002.4,N
1505966575.1,286047000.5,N
1505966576.0,286047000.5,N
1505966595.8,286046999.1,N
1505966615.6,286046998.2,N
1505966635.4,286046996.7,N
1505966655.3,286047001.1,N
1505966675.1,286047000.6,N
1505966695.8,286047000.7,N
1505966715.7,286046999.7,N
1505966735.5,286047000.0,N
1505966755.3,286046999.7,N
1505966775.2,286047003.5,N
1505966795.9,286047005.6,N
1505966815.7,286047004.9,N
1505966835.6,286047004.6,N
1505966855.4,286047004.0,N
1505966875.2,286047004.1,N
1505966895.1,286047007.4,P
1505966896.0,286047007.4,N
1505966915.8,286047006.9,N
1505966935.6,286047007.1,N
1505966955.5,286047004.3,N
1505966975.3,286047001.8,N
1505966995.1,286047004.3,N
1505967015.9,286047001.2,N
1505967035.7,286047001.2,N
1505967055.5,286046998.8,N
1505967075.3,286046998.8,N
1505967095.2,286046999.1,N
1505967115.0,286046999.2,N
1505967115.9,286046999.2,N
1505967135.7,286046996.9,N
1505967155.6,286046999.5,N
1505967175.4,286046998.6,N
1505967195.2,286046998.4,N
1505967215.1,286046999.7,N
1505967216.0,286046999.7,N
1505967235.8,286047001.8,N
1505967255.6,286047002.5,N
1505967275.5,286047005.8,N
1505967295.3,286047007.6,N
1505967315.1,286047005.7,N
1505967335.9,286047007.0,N
1505967355.7,286047006.6,N
1505967375.5,286047008.9,N
1505967395.3,286047008.4,N
1505967415.2,286047007.3,N
1505967435.0,286047005.3,N
1505967435.9,286047005.3,N
1505967455.7,286047006.0,N
1505967475.6,286047005.7,N
1505967495.4,286047005.3,N
1505967515.2,286047004.8,N
1505967535.1,286047003.7,N
1505967536.0,286047003.7,N
1505967555.8,286047006.0,N
1505967575.6,286047007.2,N
1505967595.5,286047007.4,N
1505967615.3,286047003.3,N
1505967635.1,286047005.0,N
1505967655.9,286047004.1,N
1505967675.7,286046999.9,N
1505967695.5,286047000.7,N
1505967715.3,286047002.0,N
1505967735.2,286047000.0,N
1505967755.0,286047001.6,N
1505967755.9,286047001.6,N
1505967775.7,286047001.5,N
1505967795.6,286046999.9,N
1505967815.4,286046999.7,N
1505967835.2,286047001.5,N
1505967855.1,286047002.9,N
1505967856.0,286047002.9,N
1505967875.8,286047007.2,N
1505967895.6,286047010.8,P
1505967915.5,286047003.6,N
1505967935.3,286047004.5,N
1505967955.1,286047001.3,N
1505967975.9,286047000.1,N
1505967995.7,286047002.3,N
1505968015.5,286047002.9,N
1505968035.4,286047005.6,N
1505968055.2,286047005.7,N
1505968075.0,286047004.0,N
1505968075.9,286047004.0,N
1505968095.8,286047003.9,N
1505968115.6,286047004.4,N
1505968135.4,286047002.8,N
1505968155.3,286047003.5,N
1505968175.1,286047003.0,N
1505968176.0,286047003.0,N
1505968195.8,286047004.2,N
1505968215.6,286047003.6,N
1505968235.5,286046999.7,N
1505968255.3,286047000.4,N
1505968275.1,286047000.3,N
1505968295.9,286047001.1,N
1505968315.7,286046998.4,N
1505968335.5,286047001.5,N
1505968355.4,286047001.5,N
1505968375.2,286047000.2,N
1505968395.0,286046999.9,N
1505968395.9,286046999.9,N
1505968415.8,286046998.6,N
1505968435.6,286047000.6,N
1505968455.4,286047002.2,N
1505968475.2,286047001.6,N
1505968495.1,286046999.7,N
1505968496.0,286046999.7,N
1505968515.8,286046998.3,N
1505968535.6,286046999.7,N
1505968555.5,286047001.3,N
1505968575.3,286046999.7,N
1505968595.1,286046999.8,N
1505968615.9,286046999.9,N
1505968635.7,286047001.1,N
1505968655.5,286046998.9,N
1505968675.4,286047001.2,N
1505968695.2,286046998.7,N
1505968715.0,286046997.8,N
1505968715.9,286046997.8,N
1505968735.8,286046997.2,N
1505968755.6,286046993.6,P
1505968775.4,286046995.0,N
1505968795.3,286046996.6,N
1505968815.1,286047000.6,N
1505968816.0,286047000.6,N
1505968835.8,286047001.0,N
1505968855.7,286046999.0,N
1505968875.5,286047002.2,N
1505968895.3,286047002.2,N
1505968915.2,286047000.3,N
1505968935.9,286047001.3,N
1505968955.7,286047001.0,N
1505968975.5,286046998.4,N
1505968995.4,286046998.9,N
1505969015.2,286046996.5,N
1505969035.0,286047000.3,N
1505969035.9,286047000.3,N
1505969055.8,286047002.2,N
1505969075.6,286047002.2,N
1505969095.4,286047000.3,N
1505969115.3,286047002.0,N
1505969135.1,286047002.0,N
1505969136.0,286047002.0,N
1505969155.8,286047001.1,N
1505969175.7,286046998.9,N
1505969195.5,286046997.0,N
1505969215.3,286047000.6,N
1505969235.2,286046999.4,N
1505969255.9,286046997.2,N
1505969275.7,286046996.6,N
1505969295.5,286046999.4,N
1505969315.4,286046997.7,N
1505969335.2,286046995.1,N
1505969355.0,286046998.0,N
1505969355.9,286046998.0,N
1505969375.8,286046999.4,N
1505969395.6,286046998.7,N
1505969415.4,286046999.0,N
1505969435.3,286046998.5,N
1505969455.1,286046998.4,N
1505969475.8,286046997.0,N
1505969495.7,286046996.6,N
1505969515.5,286047000.1,N
1505969535.3,286046998.2,N
1505969555.2,286046999.9,N
1505969575.9,286047002.7,N
1505969595.7,286047001.7,N
1505969615.5,286047002.8,N
1505969635.4,286047002.5,N
1505969655.2,286047004.9,N
1505969675.0,286047005.0,N
1505969675.9,286047005.0,N
1505969695.8,286047002.0,N
1505969715.6,286047002.5,N
1505969735.4,286047002.1,N
1505969755.3,286046999.8,N
1505969775.1,286046998.5,N
1505969795.8,286047000.3,N
1505969815.7,286047000.8,N
1505969835.5,286046998.7,N
1505969855.3,286046998.4,N
1505969875.2,286047002.2,N
1505969895.9,286046999.9,N
1505969915.7,286046999.7,N
1505969935.6,286047003.8,N
1505969955.4,286047001.7,N
1505969975.2,286047002.2,N
1505969995.0,286047002.8,N
1505969996.0,286047002.8,N
